Tinley Park, Illinois, United States (60477)
Lat: 41.57N, Lon: 87.78W
Wx Zone: ILZ014
Local Info
Past Weather Observations for Today

NOTE: This archive is for the closest National Weather Service station to Tinley Park. Information may differ from the station used for current weather conditions.

Click here for Long-term Archive

Time Weather Temperature Dewpoint Humidity Pressure Winds Precip Visibility
21:15
Mostly Cloudy
52°F / 11°C 45°F / 7°C 77% 30.01 in
(1016 mb)
NNW 4.6 mph
(NNW 7 kph)
- 10SM
20:55
Overcast
54°F / 12°C 45°F / 7°C 72% 30.01 in
(1016 mb)
N 8.1 mph
(N 13 kph)
- 10SM
20:35
Overcast
54°F / 12°C 46°F / 8°C 77% 30.01 in
(1016 mb)
N 6.9 mph
(N 11 kph)
- 10SM
20:15
Overcast
54°F / 12°C 46°F / 8°C 77% 29.98 in
(1015 mb)
N 6.9 mph
(N 11 kph)
- 10SM
19:55
Overcast
54°F / 12°C 46°F / 8°C 77% 29.98 in
(1015 mb)
N 4.6 mph
(N 7 kph)
- 10SM
19:35
Overcast
54°F / 12°C 46°F / 8°C 77% 29.98 in
(1015 mb)
N 8.1 mph
(N 13 kph)
- 10SM
19:15
Overcast
54°F / 12°C 48°F / 9°C 82% 29.98 in
(1015 mb)
N 9.2 mph
(N 15 kph)
- 10SM
18:55
Overcast
54°F / 12°C 48°F / 9°C 82% 29.98 in
(1015 mb)
N 9.2 mph
(N 15 kph)
- 10SM
18:35
Overcast
54°F / 12°C 48°F / 9°C 82% 29.98 in
(1015 mb)
NNE 10.4 mph
(NNE 17 kph)
- 10SM
18:15
Overcast
54°F / 12°C 48°F / 9°C 82% 29.98 in
(1015 mb)
NNE 5.8 mph
(NNE 9 kph)
- 10SM
17:55
Mostly Cloudy
54°F / 12°C 48°F / 9°C 82% 29.95 in
(1014 mb)
NNE 8.1 mph
(NNE 13 kph)
- 10SM
17:35
Overcast
54°F / 12°C 48°F / 9°C 82% 29.95 in
(1014 mb)
NNE 8.1 mph
(NNE 13 kph)
- 10SM
17:15
Overcast
55°F / 13°C 48°F / 9°C 77% 29.95 in
(1014 mb)
N 10.4 mph
(N 17 kph)
- 10SM
16:55
Overcast
55°F / 13°C 48°F / 9°C 77% 29.95 in
(1014 mb)
NNE 10.4 mph
(NNE 17 kph)
- 10SM
16:35
Overcast
55°F / 13°C 48°F / 9°C 77% 29.95 in
(1014 mb)
N 11.5 mph
(N 19 kph)
- 10SM
16:15
Overcast
55°F / 13°C 50°F / 10°C 82% 29.92 in
(1013 mb)
NE 6.9 mph
(NE 11 kph)
- 10SM
15:55
Overcast
55°F / 13°C 48°F / 9°C 77% 29.92 in
(1013 mb)
NE 9.2 mph
(NE 15 kph)
- 10SM
15:35
Overcast
57°F / 14°C 50°F / 10°C 77% 29.89 in
(1012 mb)
NNE 10.4 mph
(NNE 17 kph)
- 10SM
15:15
Overcast
59°F / 15°C 50°F / 10°C 72% 29.89 in
(1012 mb)
NE 8.1 mph
(NE 13 kph)
- 10SM
14:55
Overcast
59°F / 15°C 48°F / 9°C 68% 29.89 in
(1012 mb)
NNE 8.1 mph
(NNE 13 kph)
- 10SM
14:35
Overcast
59°F / 15°C 48°F / 9°C 68% 29.86 in
(1011 mb)
NE 10.4 mph
(NE 17 kph)
- 10SM
14:15
Overcast
61°F / 16°C 50°F / 10°C 68% 29.86 in
(1011 mb)
NE 9.2 mph
(NE 15 kph)
- 10SM
13:55
Overcast
63°F / 17°C 48°F / 9°C 59% 29.86 in
(1011 mb)
N 6.9 mph
(N 11 kph)
- 10SM
13:35
Mostly Cloudy
64°F / 18°C 48°F / 9°C 56% 29.83 in
(1010 mb)
NW 13.8 mph
(NW 22 kph)
- 10SM
13:15
Partly Cloudy
64°F / 18°C 48°F / 9°C 56% 29.83 in
(1010 mb)
W 8.1 mph
(W 13 kph)
- 10SM
12:55
Clear
63°F / 17°C 48°F / 9°C 59% 29.83 in
(1010 mb)
NW 8.1 mph
(NW 13 kph)
- 10SM
12:35
Clear
63°F / 17°C 48°F / 9°C 59% 29.83 in
(1010 mb)
NNW 6.9 mph
(NNW 11 kph)
- 10SM
12:15
Clear
61°F / 16°C 48°F / 9°C 63% 29.83 in
(1010 mb)
NW 4.6 mph
(NW 7 kph)
- 10SM
11:55
Clear
61°F / 16°C 48°F / 9°C 63% 29.86 in
(1011 mb)
NW 5.8 mph
(NW 9 kph)
- 10SM
11:35
Partly Cloudy
61°F / 16°C 48°F / 9°C 63% 29.86 in
(1011 mb)
W 3.5 mph
(W 6 kph)
- 10SM
11:15
Clear
61°F / 16°C 48°F / 9°C 63% 29.86 in
(1011 mb)
NW 5.8 mph
(NW 9 kph)
- 10SM
10:55
Clear
59°F / 15°C 48°F / 9°C 68% 29.86 in
(1011 mb)
NW 5.8 mph
(NW 9 kph)
- 10SM
10:35
Clear
59°F / 15°C 46°F / 8°C 63% 29.86 in
(1011 mb)
NNW 5.8 mph
(NNW 9 kph)
- 10SM
10:15
Clear
57°F / 14°C 46°F / 8°C 67% 29.86 in
(1011 mb)
NW 4.6 mph
(NW 7 kph)
- 10SM
09:55
Clear
57°F / 14°C 46°F / 8°C 67% 29.86 in
(1011 mb)
NW 6.9 mph
(NW 11 kph)
- 10SM
09:35
Clear
55°F / 13°C 46°F / 8°C 72% 29.86 in
(1011 mb)
NW 9.2 mph
(NW 15 kph)
- 10SM
09:15
Clear
55°F / 13°C 48°F / 9°C 77% 29.86 in
(1011 mb)
NW 6.9 mph
(NW 11 kph)
- 10SM
08:55
Clear
54°F / 12°C 46°F / 8°C 77% 29.83 in
(1010 mb)
WNW 4.6 mph
(WNW 7 kph)
- 10SM
08:35
Clear
52°F / 11°C 46°F / 8°C 82% 29.86 in
(1011 mb)
W 5.8 mph
(W 9 kph)
- 10SM
08:15
Clear
54°F / 12°C 46°F / 8°C 77% 29.83 in
(1010 mb)
SSW 8.1 mph
(SSW 13 kph)
- 10SM
07:55
Clear
52°F / 11°C 46°F / 8°C 82% 29.83 in
(1010 mb)
W 9.2 mph
(W 15 kph)
- 10SM
07:35
Clear
52°F / 11°C 46°F / 8°C 82% 29.83 in
(1010 mb)
SSW 11.5 mph
(SSW 19 kph)
- 10SM
07:15
Clear
Thunder Storms
50°F / 10°C 46°F / 8°C 88% 29.83 in
(1010 mb)
SSW 9.2 mph
(SSW 15 kph)
- 10SM
06:55
Clear
50°F / 10°C 45°F / 7°C 82% 29.83 in
(1010 mb)
SSW 9.2 mph
(SSW 15 kph)
- 10SM
06:35
Partly Cloudy
48°F / 9°C 45°F / 7°C 87% 29.83 in
(1010 mb)
SSW 5.8 mph
(SSW 9 kph)
- 10SM
06:15
Mostly Cloudy
48°F / 9°C 45°F / 7°C 87% 29.83 in
(1010 mb)
SW 8.1 mph
(SW 13 kph)
- 10SM
05:55
Mostly Cloudy
Thunder Storms
48°F / 9°C 45°F / 7°C 87% 29.83 in
(1010 mb)
SW 9.2 mph
(SW 15 kph)
- 10SM
05:35
Overcast
50°F / 10°C 45°F / 7°C 82% 29.83 in
(1010 mb)
SW 8.1 mph
(SW 13 kph)
- 10SM
05:15
Overcast
50°F / 10°C 45°F / 7°C 82% 29.83 in
(1010 mb)
SW 10.4 mph
(SW 17 kph)
- 10SM
04:55
Mostly Cloudy
48°F / 9°C 45°F / 7°C 87% 29.83 in
(1010 mb)
SW 9.2 mph
(SW 15 kph)
- 10SM
04:35
Partly Cloudy
48°F / 9°C 45°F / 7°C 87% 29.83 in
(1010 mb)
SW 10.4 mph
(SW 17 kph)
- 10SM
04:15
Clear
50°F / 10°C 45°F / 7°C 82% 29.83 in
(1010 mb)
SW 9.2 mph
(SW 15 kph)
- 10SM
03:55
Clear
48°F / 9°C 45°F / 7°C 87% 29.86 in
(1011 mb)
SW 8.1 mph
(SW 13 kph)
- 10SM
03:35
Clear
50°F / 10°C 45°F / 7°C 82% 29.86 in
(1011 mb)
SW 6.9 mph
(SW 11 kph)
- 10SM
03:15
Clear
50°F / 10°C 45°F / 7°C 82% 29.86 in
(1011 mb)
SW 11.5 mph
(SW 19 kph)
- 10SM
02:55
Partly Cloudy
50°F / 10°C 45°F / 7°C 82% 29.86 in
(1011 mb)
SW 10.4 mph
(SW 17 kph)
- 10SM
02:35
Overcast
50°F / 10°C 45°F / 7°C 82% 29.89 in
(1012 mb)
SW 9.2 mph
(SW 15 kph)
- 10SM
02:15
Overcast
50°F / 10°C 45°F / 7°C 82% 29.89 in
(1012 mb)
SW 8.1 mph
(SW 13 kph)
- 10SM
01:55
Overcast
50°F / 10°C 45°F / 7°C 82% 29.89 in
(1012 mb)
SW 9.2 mph
(SW 15 kph)
- 10SM
01:35
Overcast
50°F / 10°C 45°F / 7°C 82% 29.89 in
(1012 mb)
SW 9.2 mph
(SW 15 kph)
- 10SM
01:15
Overcast
50°F / 10°C 45°F / 7°C 82% 29.92 in
(1013 mb)
SW 9.2 mph
(SW 15 kph)
- 10SM
00:55
Mostly Cloudy
48°F / 9°C 45°F / 7°C 87% 29.92 in
(1013 mb)
SSE 10.4 mph
(SSE 17 kph)
- 10SM
00:35
Partly Cloudy
48°F / 9°C 45°F / 7°C 87% 29.92 in
(1013 mb)
SSE 9.2 mph
(SSE 15 kph)
- 10SM
00:15
Clear
48°F / 9°C 45°F / 7°C 87% 29.92 in
(1013 mb)
SSE 8.1 mph
(SSE 13 kph)
- 10SM
Time Weather Temperature Dewpoint Humidity Pressure Winds Precip Visibility


Weather for websites

WeatherForYou.com, LLC is not responsible for any damages or problems caused by this service. Current weather conditions are obtained from the closest station including government and personal stations which may have varying degrees of accuracy. Weather forecasts are derived from the NOAA NDFD. Like all things, this site belongs to Jesus Christ... He just trusts me to maintain it. If you have any questions or comments email webmaster@weatherforyou.com

Copyright © 2014, WeatherForYou.com LLC. All rights reserved.